Location: Newark
(46.3297°N, 3.5931°E)
Time: 11:33:07
(UTC+00:00)

N. Korean satellite - Visible Passes

Search period start: 10 December 2019 00:00
Search period end: 20 December 2019 00:00
Orbit: 456 x 506 km, 97.2° (Epoch: 09 December)

Date Brightness Start Highest point End Pass type
(mag) Time Alt. Az. Time Alt. Az. Time Alt. Az.
10 Dec 8.8 05:02:33 10° NE 05:05:34 26° E 05:08:31 10° SSE visible
10 Dec 7.7 06:36:04 10° NNW 06:38:51 22° WNW 06:41:36 10° WSW visible
10 Dec 8.2 17:13:07 10° SSW 17:16:37 39° W 17:20:07 10° NNW visible
11 Dec 9.9 04:38:08 10° ENE 04:39:56 13° E 04:41:41 10° ESE visible
11 Dec 6.8 06:10:12 10° N 06:13:34 42° WNW 06:16:53 10° SW visible
11 Dec 6.7 16:47:27 10° S 16:51:08 82° WSW 16:54:51 10° NNW visible
12 Dec 6.4 05:44:38 10° NNE 05:48:11 89° ESE 05:51:40 10° SSW visible
12 Dec 10.0 17:57:32 10° WSW 17:59:24 13° W 18:01:16 10° WNW visible
13 Dec 7.8 05:19:21 10° NNE 05:22:42 41° E 05:26:00 10° S visible
13 Dec 9.1 17:30:41 10° SSW 17:33:46 25° W 17:36:52 10° NW visible
14 Dec 9.2 04:54:25 10° NE 04:57:07 20° E 04:59:47 10° SE visible
14 Dec 7.4 06:27:32 10° N 06:30:32 26° WNW 06:33:28 10° SW visible
14 Dec 7.7 17:04:38 10° S 17:08:14 49° W 17:11:49 10° NNW visible
15 Dec 10.1 04:30:44 10° ENE 04:31:27 10° E 04:32:09 10° E visible
15 Dec 6.5 06:01:46 10° N 06:05:13 53° WNW 06:08:35 10° SSW visible
15 Dec 6.6 16:39:06 10° SSE 16:42:47 79° ENE 16:46:28 10° N visible
16 Dec 6.7 05:36:17 10° NNE 05:39:47 70° ESE 05:43:13 10° S visible
16 Dec 9.8 17:48:36 10° SW 17:50:58 16° W 17:53:20 10° NW visible
17 Dec 8.3 05:11:05 10° NNE 05:14:16 32° E 05:17:24 10° SSE visible
17 Dec 8.0 06:45:03 10° NNW 06:47:26 17° WNW 06:49:47 10° WSW visible
17 Dec 8.7 17:22:04 10° SSW 17:25:21 30° W 17:28:38 10° NNW visible
18 Dec 9.5 04:46:21 10° NE 04:48:39 16° E 04:50:55 10° SE visible
18 Dec 7.1 06:19:01 10° N 06:22:10 32° WNW 06:25:16 10° SW visible
18 Dec 7.2 16:56:12 10° S 16:59:51 63° W 17:03:28 10° NNW visible
19 Dec 6.3 05:53:20 10° N 05:56:48 69° WNW 06:00:13 10° SSW visible
19 Dec 6.6 16:30:48 10° SSE 16:34:25 62° ENE 16:38:00 10° N visible
19 Dec 10.3 18:07:43 10° W 18:08:10 10° W 18:08:39 10° W visible
